Retour au catalogue

ATLAS 5 CENTAUR R/B

ActifHEO
NORAD 39505·ROCKET BODY·🇺🇸 United States

Lancé Jan 24, 2014 depuis Cape Canaveral Space Force Station

Loading…

Prochains Passages (prochaines 24 heures)

TLE

FraisSource: Space-Track

Époque: Sep 14, 2026, 12:04 UTC

1 39505U 14004B   26257.50287552 -.00000041  00000-0  00000-0 0  9993
2 39505  25.9917   5.0520 5759389 283.3046  21.6247  2.06523164 95398

Suivez ATLAS 5 CENTAUR R/B en temps réel avec AllMySat

Download on the App Store